Weather History for Tahlequah, OK

Change the Weather History Date:

Friday, April 26, 2013

  Actual Average (KMKO) Record (KMKO)
Temperature  
Mean Temperature 54 °F -  
Max Temperature 59 °F 72 °F 84 °F (2012)
Min Temperature 50 °F 50 °F 42 °F (2005)
Degree Days  
Heating Degree Days 10    
Growing Degree Days 4 (Base 50)    
Moisture  
Dew Point 46 °F    
Average Humidity 80    
Maximum Humidity 100    
Minimum Humidity 42    
Precipitation  
Precipitation 0.13 in - - ()
Sea Level Pressure  
Sea Level Pressure 30.16 in    
Wind  
Wind Speed 8 mph (ESE)    
Max Wind Speed 17 mph    
Max Gust Speed 29 mph    
Visibility 9 miles    
Events      
Averages and records for this station are not official NWS values.
T = Trace of Precipitation, MM = Missing Value Source: NWS Daily Summary

Daily Weather History Graph

Daily Weather History Graph

Search for Another Location

Airport:

Trip Planner

Search our weather history database for the weather conditions in past years. The results will help you decide how hot, cold, wet, or windy it might be!

Date:

Astronomy

Apr. 26, 2013 Rise Set
Actual Time 6:32 AM CDT 8:03 PM CDT
Civil Twilight 6:05 AM CDT 8:30 PM CDT
Nautical Twilight 5:33 AM CDT 9:02 PM CDT
Astronomical Twilight 4:59 AM CDT 9:37 PM CDT
Moon 9:24 PM CDT (4/26) 7:02 AM CDT (4/26)
Length of Visible Light 14h 24m
Length of Day
13h 30m
Full, 99% of the Moon is Illuminated
Apr 26
Full
May 2
Last Quarter
May 9
New
May 17
First Quarter
May 24
Full

Hourly Weather History & Observations

Time (CDT) Temp. Dew Point Humidity Pressure Visibility Wind Dir Wind Speed Gust Speed Precip Events Conditions
12:15 AM 59.0 °F 35.6 °F 42% 30.23 in 10.0 mi South 4.6 mph - N/A   Overcast
12:35 AM 59.0 °F 35.6 °F 42% 30.23 in 10.0 mi South 5.8 mph - N/A   Overcast
12:55 AM 59.0 °F 35.6 °F 42% 30.23 in 10.0 mi SSE 4.6 mph - N/A   Scattered Clouds
1:15 AM 59.0 °F 35.6 °F 42% 30.23 in 10.0 mi SE 9.2 mph 16.1 mph N/A   Scattered Clouds
1:35 AM 59.0 °F 37.4 °F 45% 30.22 in 10.0 mi SSE 8.1 mph - N/A   Clear
1:55 AM 59.0 °F 37.4 °F 45% 30.21 in 10.0 mi SE 8.1 mph - N/A   Clear
2:15 AM 59.0 °F 37.4 °F 45% 30.19 in 10.0 mi SE 9.2 mph - N/A   Clear
2:35 AM 57.2 °F 37.4 °F 48% 30.19 in 10.0 mi SSE 8.1 mph - N/A   Clear
2:55 AM 57.2 °F 37.4 °F 48% 30.19 in 10.0 mi SE 8.1 mph - N/A   Scattered Clouds
3:15 AM 57.2 °F 37.4 °F 48% 30.18 in 10.0 mi SE 3.5 mph - N/A   Scattered Clouds
3:35 AM 55.4 °F 41.0 °F 58% 30.19 in 2.5 mi SSE 3.5 mph - 0.05 in   Haze
3:55 AM 53.6 °F 42.8 °F 67% 30.17 in 10.0 mi SE 5.8 mph - 0.05 in   Mostly Cloudy
4:15 AM 53.6 °F 41.0 °F 62% 30.18 in 7.0 mi SSE 10.4 mph 16.1 mph N/A   Overcast
4:35 AM 51.8 °F 44.6 °F 76% 30.17 in 10.0 mi ESE 3.5 mph - 0.03 in   Mostly Cloudy
4:55 AM 50.0 °F 44.6 °F 82% 30.16 in 10.0 mi Calm Calm - 0.03 in   Mostly Cloudy
5:15 AM 50.0 °F 44.6 °F 82% 30.16 in 10.0 mi Calm Calm - N/A   Mostly Cloudy
5:35 AM 51.8 °F 46.4 °F 82% 30.17 in 10.0 mi ESE 3.5 mph - N/A   Mostly Cloudy
5:55 AM 50.0 °F 44.6 °F 82% 30.16 in 10.0 mi Calm Calm - N/A   Scattered Clouds
6:15 AM 50.0 °F 44.6 °F 82% 30.15 in 10.0 mi ESE 3.5 mph - N/A   Clear
6:55 AM 50.0 °F 44.6 °F 82% 30.17 in 10.0 mi Calm Calm - N/A   Mostly Cloudy
7:15 AM 51.8 °F 44.6 °F 76% 30.18 in 10.0 mi East 3.5 mph - N/A   Mostly Cloudy
7:35 AM 51.8 °F 44.6 °F 76% 30.18 in 10.0 mi East 4.6 mph - N/A   Mostly Cloudy
7:55 AM 53.6 °F 42.8 °F 67% 30.18 in 10.0 mi East 6.9 mph - N/A   Mostly Cloudy
8:15 AM 53.6 °F 42.8 °F 67% 30.18 in 10.0 mi ESE 6.9 mph - N/A   Overcast
8:35 AM 53.6 °F 42.8 °F 67% 30.19 in 10.0 mi SE 8.1 mph - N/A   Overcast
8:55 AM 53.6 °F 42.8 °F 67% 30.18 in 10.0 mi SE 8.1 mph - N/A   Overcast
9:15 AM 53.6 °F 44.6 °F 72% 30.18 in 5.0 mi ESE 5.8 mph - N/A   Haze
9:35 AM 51.8 °F 46.4 °F 82% 30.21 in 3.0 mi NE 6.9 mph - 0.02 in   Haze
9:55 AM 50.0 °F 46.4 °F 87% 30.21 in 10.0 mi East 8.1 mph - 0.03 in   Mostly Cloudy
10:15 AM 51.8 °F 44.6 °F 76% 30.20 in 10.0 mi ENE 9.2 mph - N/A   Overcast
10:35 AM 51.8 °F 44.6 °F 76% 30.24 in 10.0 mi East 4.6 mph - N/A   Overcast
10:55 AM 51.8 °F 46.4 °F 82% 30.23 in 10.0 mi ENE 8.1 mph - N/A   Overcast
11:15 AM 51.8 °F 46.4 °F 82% 30.22 in 10.0 mi ENE 10.4 mph 16.1 mph N/A   Overcast
11:35 AM 51.8 °F 46.4 °F 82% 30.22 in 10.0 mi East 13.8 mph 19.6 mph 0.01 in   Mostly Cloudy
11:55 AM 51.8 °F 46.4 °F 82% 30.24 in 10.0 mi ENE 15.0 mph 21.9 mph 0.01 in   Overcast
12:15 PM 51.8 °F 46.4 °F 82% 30.24 in 10.0 mi East 17.3 mph 20.7 mph N/A   Mostly Cloudy
12:35 PM 50.0 °F 48.2 °F 94% 30.23 in 2.5 mi East 15.0 mph 19.6 mph N/A   Overcast
12:55 PM 50.0 °F 48.2 °F 94% 30.21 in 7.0 mi East 15.0 mph 19.6 mph N/A   Mostly Cloudy
1:15 PM 51.8 °F 48.2 °F 88% 30.20 in 7.0 mi East 12.7 mph 17.3 mph N/A   Mostly Cloudy
1:35 PM 50.0 °F 48.2 °F 94% 30.19 in 7.0 mi East 13.8 mph 19.6 mph N/A   Mostly Cloudy
1:55 PM 51.8 °F 48.2 °F 88% 30.17 in 7.0 mi East 13.8 mph 20.7 mph N/A   Mostly Cloudy
2:15 PM 51.8 °F 50.0 °F 94% 30.17 in 10.0 mi ESE 13.8 mph 19.6 mph N/A   Mostly Cloudy
2:35 PM 51.8 °F 48.2 °F 88% 30.16 in 10.0 mi ESE 16.1 mph 28.8 mph N/A   Mostly Cloudy
2:55 PM 51.8 °F 48.2 °F 88% 30.15 in 10.0 mi ESE 16.1 mph 25.3 mph N/A   Mostly Cloudy
3:15 PM 51.8 °F 48.2 °F 88% 30.15 in 10.0 mi ESE 16.1 mph 24.2 mph N/A   Overcast
3:35 PM 51.8 °F 48.2 °F 88% 30.14 in 10.0 mi ESE 12.7 mph 20.7 mph N/A   Overcast
3:55 PM 51.8 °F 48.2 °F 88% 30.13 in 10.0 mi ESE 12.7 mph - N/A   Overcast
4:15 PM 51.8 °F 46.4 °F 82% 30.13 in 10.0 mi ESE 13.8 mph 17.3 mph N/A   Overcast
4:35 PM 51.8 °F 48.2 °F 88% 30.12 in 10.0 mi ESE 11.5 mph 18.4 mph N/A   Overcast
4:55 PM 50.0 °F 48.2 °F 94% 30.11 in 3.0 mi ESE 11.5 mph 19.6 mph N/A   Overcast
5:15 PM 50.0 °F 48.2 °F 94% 30.11 in 10.0 mi ESE 8.1 mph 17.3 mph N/A   Overcast
5:35 PM 51.8 °F 48.2 °F 88% 30.11 in 10.0 mi ESE 12.7 mph 17.3 mph N/A   Overcast
5:55 PM 51.8 °F 50.0 °F 94% 30.10 in 10.0 mi SE 12.7 mph 18.4 mph N/A   Overcast
6:15 PM 51.8 °F 50.0 °F 94% 30.10 in 10.0 mi SE 10.4 mph 21.9 mph N/A   Overcast
6:35 PM 51.8 °F 48.2 °F 88% 30.10 in 10.0 mi SE 10.4 mph 19.6 mph N/A   Overcast
6:55 PM 51.8 °F 50.0 °F 94% 30.10 in 7.0 mi SE 11.5 mph 19.6 mph N/A   Overcast
7:15 PM 50.0 °F 50.0 °F 100% 30.09 in 5.0 mi ESE 8.1 mph 16.1 mph N/A   Overcast
7:35 PM 50.0 °F 50.0 °F 100% 30.10 in 2.5 mi ESE 6.9 mph - 0.01 in   Overcast
7:55 PM 50.0 °F 50.0 °F 100% 30.10 in 10.0 mi SE 9.2 mph - 0.01 in   Overcast
8:15 PM 50.0 °F 50.0 °F 100% 30.10 in 10.0 mi SE 9.2 mph - N/A   Overcast
8:35 PM 50.0 °F 50.0 °F 100% 30.11 in 10.0 mi SE 5.8 mph - N/A   Overcast
8:55 PM 50.0 °F 50.0 °F 100% 30.11 in 10.0 mi ESE 8.1 mph - N/A   Overcast
9:15 PM 50.0 °F 50.0 °F 100% 30.10 in 10.0 mi ESE 9.2 mph - N/A   Overcast
9:35 PM 51.8 °F 50.0 °F 94% 30.11 in 10.0 mi ESE 8.1 mph - N/A   Overcast
9:55 PM 51.8 °F 50.0 °F 94% 30.11 in 10.0 mi SE 5.8 mph - N/A   Overcast
10:15 PM 51.8 °F 50.0 °F 94% 30.12 in 10.0 mi SE 4.6 mph - N/A   Overcast
10:35 PM 51.8 °F 50.0 °F 94% 30.12 in 10.0 mi ESE 5.8 mph - N/A   Overcast
10:55 PM 51.8 °F 50.0 °F 94% 30.13 in 10.0 mi ESE 5.8 mph - N/A   Overcast
11:15 PM 51.8 °F 50.0 °F 94% 30.11 in 10.0 mi ESE 10.4 mph - N/A   Overcast
11:35 PM 51.8 °F 50.0 °F 94% 30.11 in 10.0 mi ESE 8.1 mph - N/A   Overcast
11:55 PM 51.8 °F 50.0 °F 94% 30.09 in 10.0 mi East 10.4 mph - N/A   Overcast